| time (UTC) | temp C | wind direction | speed KPH | gust KPH | rain 1hr cm | rain 24hr cm | rain mn cm | humidity % | barometer mb |
| 20260506223054 | 13 | 242 | 3.2 | 14.5 | 0.00 | 0.00 | 0.00 | ||
| 20260506213043 | 13 | 222 | 1.6 | 12.9 | 0.00 | 0.00 | 0.00 | ||
| 20260506210112 | 14 | 224 | 3.2 | 9.7 | 0.00 | 0.00 | 0.00 | ||
| 20260506203048 | 14 | 251 | 1.6 | 12.9 | 0.00 | 0.00 | 0.00 | ||
| 20260506200101 | 13 | 243 | 1.6 | 9.7 | 0.00 | 0.00 | 0.00 | ||
| 20260506193043 | 13 | 285 | 1.6 | 9.7 | 0.00 | 0.00 | 0.00 | ||
| 20260506183033 | 12 | 215 | 1.6 | 6.4 | 0.00 | 0.00 | 0.00 | ||
| 20260506180104 | 12 | 270 | 0.0 | 4.8 | 0.00 | 0.00 | 0.00 | ||
| 20260506173044 | 12 | 239 | 3.2 | 9.7 | 0.00 | 0.00 | 0.00 | ||
| 20260506170055 | 12 | 249 | 1.6 | 9.7 | 0.00 | 0.00 | 0.00 | ||
| 20260506163036 | 12 | 265 | 1.6 | 8.0 | 0.00 | 0.00 | 0.00 | ||
| 20260506160046 | 12 | 239 | 0.0 | 3.2 | 0.00 | 0.00 | 0.00 | ||
| 20260506150056 | 12 | 262 | 0.0 | 8.0 | 0.00 | 0.00 | 0.00 | ||
| 20260506143036 | 11 | 235 | 0.0 | 1.6 | 0.00 | 0.00 | 0.00 | ||
| 20260506140104 | 11 | 176 | 0.0 | 3.2 | 0.00 | 0.00 | 0.00 | ||
| 20260506133044 | 11 | 280 | 0.0 | 1.6 | 0.00 | 0.00 | 0.00 | ||
| 20260506130053 | 11 | 234 | 0.0 | 1.6 | 0.00 | 0.00 | 0.00 | ||
| 20260506123037 | 11 | 262 | 0.0 | 3.2 | 0.00 | 0.00 | 0.00 | ||
| 20260506120108 | 11 | 211 | 0.0 | 3.2 | 0.00 | 0.00 | 0.00 | ||
| 20260506113048 | 11 | 242 | 0.0 | 8.0 | 0.00 | 0.00 | 0.00 | ||
| 20260506103041 | 11 | 217 | 0.0 | 3.2 | 0.00 | 0.00 | 0.00 | ||
| 20260506100049 | 11 | 239 | 0.0 | 1.6 | 0.00 | 0.00 | 0.00 | ||
| 20260506093051 | 11 | 228 | 0.0 | 3.2 | 0.00 | 0.00 | 0.00 | ||
| 20260506083039 | 12 | 249 | 0.0 | 3.2 | 0.00 | 0.00 | 0.00 | ||
| 20260506050106 | 12 | 251 | 1.6 | 4.8 | 0.00 | 0.00 | 0.00 | ||
| 20260506043048 | 12 | 283 | 1.6 | 4.8 | 0.00 | 0.00 | 0.00 | ||
| 20260506040100 | 12 | 258 | 0.0 | 8.0 | 0.00 | 0.00 | 0.00 | ||
| 20260506033037 | 13 | 231 | 1.6 | 3.2 | 0.00 | 0.00 | 0.00 | ||
| 20260506030107 | 13 | 265 | 1.6 | 6.4 | 0.00 | 0.00 | 0.00 | ||
| 20260506023046 | 13 | 215 | 0.0 | 6.4 | 0.00 | 0.00 | 0.00 | ||
| 20260506020054 | 14 | 231 | 1.6 | 6.4 | 0.00 | 0.00 | 0.00 | ||
| 20260506013035 | 15 | 203 | 3.2 | 8.0 | 0.00 | 0.00 | 0.00 | ||
| 20260506010103 | 15 | 258 | 1.6 | 12.9 | 0.00 | 0.00 | 0.00 | ||
| 20260506003044 | 16 | 284 | 1.6 | 9.7 | 0.00 | 0.00 | 0.00 | ||
| 20260506000052 | 17 | 269 | 1.6 | 12.9 | 0.00 | 0.00 | 0.00 | ||
| 20260505233053 | 16 | 255 | 4.8 | 12.9 | 0.00 | 0.00 | 0.00 |